FW6937 Weather Reports


time (UTC)temp
C
wind
direction
speed
KPH
gust
KPH
rain 1hr
cm
rain 24hr
cm
rain mn
cm
humidity
%
barometer
mb
20260906110106 21 0 0.0 3.2 0.00 1.75 0.00 93 1013.2
20260906105558 21 0 0.0 3.2 0.00 1.75 0.00 93 1013.2
20260906105056 21 356 0.0 3.2 0.00 1.75 0.00 93 1013.2
20260906104607 21 0 0.0 0.0 0.00 1.75 0.00 93 1013.0
20260906104056 21 0 0.0 0.0 0.00 1.75 0.00 93 1013.1
20260906103556 21 0 0.0 0.0 0.00 1.75 0.00 93 1013.0
20260906103106 21 0 0.0 0.0 0.00 1.75 0.00 93 1012.9
20260906102600 21 0 0.0 0.0 0.00 1.75 0.00 93 1012.8
20260906102057 21 0 0.0 0.0 0.00 1.75 0.00 93 1013.1
20260906101605 21 0 0.0 3.2 0.00 1.75 0.00 93 1013.2
20260906101057 21 0 0.0 3.2 0.00 1.75 0.00 93 1013.1
20260906100557 21 339 0.0 3.2 0.00 1.75 0.00 93 1013.1
20260906100106 21 0 0.0 0.0 0.00 1.75 0.00 93 1013.0
20260906095556 21 0 0.0 0.0 0.00 1.75 0.00 93 1013.0
20260906095057 21 0 0.0 0.0 0.00 1.75 0.00 93 1012.9
20260906094609 21 0 0.0 0.0 0.00 1.75 0.00 93 1012.9
20260906094056 21 0 0.0 0.0 0.00 1.75 0.00 93 1012.9
20260906093557 21 0 0.0 0.0 0.00 1.75 0.00 93 1012.9
20260906093105 21 0 0.0 0.0 0.00 1.75 0.00 93 1013.1
20260906092557 21 0 0.0 0.0 0.00 1.75 0.00 93 1013.3
20260906092055 21 0 0.0 0.0 0.00 1.75 0.00 93 1013.1
20260906091606 21 0 0.0 0.0 0.00 1.75 0.00 93 1013.0
20260906091056 21 0 0.0 0.0 0.00 1.75 0.00 93 1013.0
20260906090554 21 0 0.0 0.0 0.00 1.75 0.00 93 1013.0
20260906085554 21 0 0.0 0.0 0.00 1.75 0.00 93 1012.9
20260906085054 21 0 0.0 0.0 0.00 1.75 0.00 93 1012.9
20260906084606 21 0 0.0 0.0 0.00 1.75 0.00 93 1012.8
20260906084056 21 0 0.0 0.0 0.00 1.75 0.00 93 1012.9
20260906083555 21 0 0.0 0.0 0.00 1.75 0.00 93 1012.9
20260906083105 21 0 0.0 0.0 0.00 1.75 0.00 93 1012.8
20260906082555 21 0 0.0 0.0 0.00 1.75 0.00 93 1012.9
20260906082055 21 0 0.0 0.0 0.00 1.75 0.00 93 1012.9
20260906081603 21 0 0.0 0.0 0.00 1.75 0.00 93 1012.9
20260906081055 21 0 0.0 0.0 0.00 1.75 0.00 93 1012.8
20260906080555 21 0 0.0 0.0 0.00 1.75 0.00 93 1012.8
20260906075554 21 0 0.0 0.0 0.00 1.75 0.00 93 1012.9
20260906075055 21 0 0.0 0.0 0.00 1.75 0.00 93 1012.8
20260906074607 21 0 0.0 0.0 0.00 1.75 0.00 93 1012.8
20260906074055 21 0 0.0 0.0 0.00 1.75 0.00 93 1012.9
20260906073555 21 0 0.0 0.0 0.00 1.75 0.00 93 1012.8
20260906073106 21 0 0.0 0.0 0.00 1.75 0.00 93 1012.8
20260906072555 21 0 0.0 0.0 0.00 1.75 0.00 93 1012.8
20260906072054 21 0 0.0 0.0 0.00 1.75 0.00 92 1012.9
20260906071604 21 0 0.0 0.0 0.00 1.75 0.00 93 1013.0
20260906071055 21 0 0.0 0.0 0.00 1.75 0.00 93 1013.0
20260906070555 21 0 0.0 0.0 0.00 1.75 0.00 93 1013.1
20260906070104 21 0 0.0 0.0 0.00 1.75 0.00 93 1013.1
20260906065556 21 0 0.0 0.0 0.00 1.75 0.00 93 1013.1
20260906065058 21 0 0.0 0.0 0.00 1.75 0.00 93 1013.1
20260906064601 21 0 0.0 0.0 0.00 1.75 0.00 93 1013.0
20260906064055 21 0 0.0 0.0 0.00 1.75 0.00 92 1013.2
20260906063556 21 0 0.0 0.0 0.00 1.75 0.00 92 1013.1
20260906063104 21 0 0.0 1.6 0.00 1.75 0.00 92 1013.1
20260906062554 21 0 0.0 1.6 0.00 1.75 0.00 92 1013.1
20260906062055 21 0 0.0 0.0 0.00 1.75 0.00 92 1013.1
20260906061604 21 0 0.0 1.6 0.00 1.75 0.00 92 1013.2
20260906061056 21 0 0.0 1.6 0.00 1.75 0.00 92 1013.2
20260906060555 21 0 1.6 1.6 0.00 1.75 0.00 92 1013.3
20260906060104 22 13 0.0 1.6 0.00 1.75 0.00 92 1013.4
20260906055556 22 0 0.0 1.6 0.00 1.75 0.00 92 1013.5
20260906055057 22 0 0.0 1.6 0.00 1.75 0.00 92 1013.7
20260906054607 22 0 0.0 1.6 0.00 1.75 0.00 92 1013.7
20260906054056 22 13 1.6 1.6 0.00 1.75 0.00 93 1013.7
20260906053556 22 0 0.0 3.2 0.00 1.75 0.00 92 1013.6
20260906053110 22 8 1.6 4.8 0.00 1.75 0.00 92 1013.8
20260906052555 22 354 3.2 4.8 0.00 1.75 0.00 93 1013.8
20260906052056 22 358 3.2 4.8 0.00 1.75 0.00 93 1014.0
20260906051605 22 18 1.6 4.8 0.00 1.75 0.00 92 1013.9
20260906051056 22 18 1.6 4.8 0.00 1.75 0.00 92 1014.0
20260906050600 22 360 0.0 1.6 0.00 1.75 0.00 92 1014.1
20260906050108 22 0 0.0 1.6 0.00 1.75 0.00 92 1014.2
20260906045555 22 0 0.0 3.2 0.00 1.75 0.00 92 1014.3
20260906045055 22 1 1.6 4.8 0.00 1.75 0.00 92 1014.3
20260906044604 22 352 1.6 6.4 0.00 1.75 0.00 92 1014.3
20260906044055 22 8 3.2 6.4 0.00 1.75 0.00 92 1014.3
20260906043556 22 4 3.2 6.4 0.00 1.75 0.00 92 1014.3
20260906043107 22 346 3.2 4.8 0.00 1.75 0.00 92 1014.0
20260906042555 22 23 1.6 4.8 0.00 1.75 0.00 92 1014.1
20260906042056 22 19 3.2 4.8 0.00 1.75 0.00 92 1014.0
20260906041603 23 1 0.0 3.2 0.00 1.75 0.00 93 1014.1
20260906041055 23 1 0.0 3.2 0.00 1.75 0.00 93 1014.0
20260906040600 23 359 0.0 3.2 0.00 1.75 0.00 93 1014.0
20260906040110 23 0 0.0 3.2 0.00 1.75 0.00 93 1014.0
20260906035556 23 358 1.6 3.2 0.00 1.75 1.75 93 1013.9
20260906035058 23 359 0.0 1.6 0.00 1.75 1.75 93 1014.0
20260906034607 23 0 0.0 1.6 0.00 1.75 1.75 93 1014.0
20260906034056 23 0 0.0 1.6 0.00 1.75 1.75 92 1014.1
20260906033555 23 359 1.6 1.6 0.00 1.75 1.75 93 1014.1
20260906033112 23 358 0.0 4.8 0.00 1.75 1.75 92 1014.1
20260906032555 23 358 1.6 4.8 0.00 1.75 1.75 93 1014.1
20260906032055 23 5 1.6 3.2 0.00 1.75 1.75 92 1014.2
20260906031600 23 5 1.6 3.2 0.00 1.75 1.75 92 1014.2
20260906031058 23 0 0.0 1.6 0.00 1.75 1.75 92 1014.3
20260906030556 23 0 0.0 1.6 0.00 1.75 1.75 93 1014.2
20260906030104 23 0 0.0 1.6 0.00 1.75 1.75 92 1014.1
20260906025555 23 15 1.6 3.2 0.00 1.75 1.75 92 1014.0
20260906025056 23 15 1.6 3.2 0.00 1.75 1.75 92 1014.1
20260906024603 23 4 3.2 3.2 0.00 1.75 1.75 92 1014.2
20260906024058 23 0 0.0 0.0 0.00 1.75 1.75 92 1014.3
20260906023555 23 0 0.0 0.0 0.00 1.75 1.75 92 1014.3
20260906023102 23 0 0.0 0.0 0.00 1.75 1.75 92 1014.4
20260906022557 23 0 0.0 0.0 0.00 1.75 1.75 92 1014.4
20260906022059 23 0 0.0 0.0 0.00 1.75 1.75 92 1014.6
20260906021606 23 0 0.0 0.0 0.00 1.75 1.75 92 1014.6
20260906021056 23 0 0.0 0.0 0.00 1.75 1.75 92 1014.6
20260906020556 23 0 0.0 0.0 0.00 1.75 1.75 92 1014.5
20260906020109 23 0 0.0 0.0 0.00 1.75 1.75 92 1014.3
20260906015555 23 0 0.0 0.0 0.00 1.75 1.75 92 1014.2
20260906015056 23 0 0.0 0.0 0.00 1.75 1.75 92 1014.2
20260906014603 23 0 0.0 0.0 0.00 1.75 1.75 92 1014.2
20260906014055 23 0 0.0 0.0 0.00 1.75 1.75 92 1014.3
20260906013559 23 0 0.0 0.0 0.00 1.75 1.75 92 1014.2
20260906013111 23 0 0.0 1.6 0.00 1.75 1.75 92 1014.0
20260906012559 23 0 0.0 1.6 0.00 1.75 1.75 92 1013.9
20260906012056 22 0 0.0 1.6 0.00 1.75 1.75 92 1013.9
20260906011608 22 31 0.0 1.6 0.00 1.75 1.75 92 1013.9
20260906011055 22 0 0.0 1.6 0.00 1.75 1.75 92 1013.7
20260906010555 22 31 1.6 3.2 0.00 1.75 1.75 91 1013.6
20260906010107 22 32 1.6 3.2 0.00 1.75 1.75 91 1013.6
20260906005555 22 0 0.0 3.2 0.00 1.75 1.75 91 1013.5
20260906005056 22 0 0.0 3.2 0.00 1.75 1.75 91 1013.5
20260906004611 22 3 1.6 3.2 0.00 1.75 1.75 91 1013.5
20260906004055 22 10 3.2 3.2 0.00 1.75 1.75 91 1013.3
20260906003558 22 0 0.0 0.0 0.00 1.75 1.75 91 1013.1
20260906003107 22 0 0.0 1.6 0.00 1.75 1.75 91 1013.1
20260906002558 22 0 0.0 1.6 0.00 1.75 1.75 91 1013.3
20260906002059 22 18 1.6 1.6 0.00 1.75 1.75 91 1013.2
20260906001607 22 0 0.0 0.0 0.00 1.75 1.75 91 1012.9
20260906001058 22 0 0.0 0.0 0.00 1.75 1.75 91 1012.7
20260906000558 22 0 0.0 1.6 0.00 1.75 1.75 91 1012.4
20260906000109 22 0 0.0 1.6 0.00 1.75 1.75 91 1012.3
20260905235558 22 0 0.0 1.6 0.00 1.75 1.75 91 1012.3
20260905235058 23 0 0.0 1.6 0.00 1.75 1.75 91 1012.4
20260905234604 23 0 0.0 3.2 0.00 1.75 1.75 91 1012.5
20260905234059 23 0 1.6 3.2 0.00 1.75 1.75 91 1012.6
20260905233559 23 332 0.0 4.8 0.00 1.75 1.75 91 1012.8
20260905233103 22 1 1.6 4.8 0.00 1.75 1.75 91 1012.9
20260905232555 22 31 3.2 4.8 0.00 1.75 1.75 91 1013.0
20260905232058 22 354 3.2 4.8 0.00 1.75 1.75 91 1013.0
20260905231604 22 7 0.0 4.8 0.00 1.75 1.75 91 1013.0
20260905231058 22 354 1.6 9.7 0.00 1.75 1.75 91 1013.0
20260905230559 22 4 3.2 9.7 0.00 1.75 1.75 91 1012.8
20260905230105 22 358 6.4 9.7 0.00 1.75 1.75 91 1012.7
20260905225558 22 344 4.8 8.0 0.00 1.75 1.75 92 1012.8
20260905225058 22 13 3.2 6.4 0.00 1.75 1.75 91 1013.0
20260905224602 22 3 3.2 4.8 0.00 1.75 1.75 91 1012.9
20260905224059 22 15 0.0 3.2 0.00 1.75 1.75 91 1012.5
20260905223558 22 136 0.0 3.2 0.05 1.75 1.75 91 1012.6
20260905223106 22 235 1.6 3.2 0.28 1.75 1.75 91 1012.5
20260905222559 22 356 0.0 3.2 0.66 1.75 1.75 90 1012.4
20260905222058 22 9 0.0 3.2 0.94 1.75 1.75 90 1012.5
20260905221605 22 5 1.6 3.2 1.14 1.75 1.75 90 1012.8
20260905221058 22 56 0.0 3.2 1.52 1.75 1.75 90 1012.7
20260905220559 22 249 0.0 3.2 1.75 1.75 1.75 89 1012.9
20260905220106 22 0 0.0 3.2 1.75 1.75 1.75 88 1012.8
20260905215559 22 0 0.0 3.2 1.75 1.75 1.75 88 1013.3
20260905215059 22 11 0.0 3.2 1.75 1.75 1.75 88 1013.4
20260905214603 22 11 1.6 3.2 1.75 1.75 1.75 87 1013.5
20260905214058 22 74 0.0 6.4 1.75 1.75 1.75 86 1013.6
20260905213557 22 0 0.0 6.4 1.70 1.70 1.70 85 1013.8
20260905213108 23 4 1.6 6.4 1.47 1.47 1.47 84 1013.9
20260905212556 23 201 3.2 8.0 1.09 1.09 1.09 82 1014.0
20260905212054 24 143 3.2 12.9 0.81 0.81 0.81 81 1014.0
20260905211603 25 83 4.8 12.9 0.61 0.61 0.61 76 1013.8
20260905211056 28 113 6.4 12.9 0.20 0.20 0.20 69 1013.7
20260905210556 31 171 3.2 6.4 0.00 0.00 0.00 64 1013.1
20260905210123 33 103 1.6 11.3 0.00 0.00 0.00 56 1012.6
20260905205555 34 63 3.2 12.9 0.00 0.00 0.00 52 1012.3
20260905205057 35 51 6.4 12.9 0.00 0.00 0.00 51 1012.2
20260905204604 35 113 4.8 12.9 0.00 0.00 0.00 48 1012.1
20260905204055 35 221 4.8 8.0 0.00 0.00 0.00 51 1011.9
20260905203555 36 218 3.2 6.4 0.00 0.00 0.00 48 1012.0
20260905203106 36 257 1.6 6.4 0.00 0.00 0.00 47 1012.1
20260905202555 36 252 3.2 8.0 0.00 0.00 0.00 49 1012.1
20260905202056 36 250 3.2 8.0 0.00 0.00 0.00 50 1012.2
20260905201624 36 241 3.2 6.4 0.00 0.00 0.00 50 1012.2
20260905201055 36 39 1.6 6.4 0.00 0.00 0.00 49 1012.3
20260905200555 36 259 1.6 6.4 0.00 0.00 0.00 51 1012.1
20260905200117 36 237 3.2 8.0 0.00 0.00 0.00 51 1012.3
20260905195556 36 39 3.2 8.0 0.00 0.00 0.00 49 1012.4
20260905195055 36 288 3.2 6.4 0.00 0.00 0.00 50 1012.5
20260905194616 36 36 1.6 6.4 0.00 0.00 0.00 51 1012.4
20260905194055 36 219 3.2 6.4 0.00 0.00 0.00 51 1012.3
20260905193555 36 236 1.6 6.4 0.00 0.00 0.00 51 1012.4
20260905193111 36 13 3.2 8.0 0.00 0.00 0.00 50 1012.5
20260905192557 36 54 3.2 9.7 0.00 0.00 0.00 51 1012.6
20260905192057 35 243 3.2 9.7 0.00 0.00 0.00 51 1012.8
20260905191609 35 226 6.4 11.3 0.00 0.00 0.00 51 1012.9
20260905191056 35 238 6.4 11.3 0.00 0.00 0.00 51 1012.9
20260905190555 35 212 4.8 6.4 0.00 0.00 0.00 50 1012.9
20260905190119 35 245 3.2 4.8 0.00 0.00 0.00 51 1012.9
20260905185556 35 305 1.6 6.4 0.00 0.00 0.00 53 1013.0
20260905185055 35 155 1.6 8.0 0.00 0.00 0.00 54 1013.1
20260905184624 35 201 3.2 8.0 0.00 0.00 0.00 55 1013.1
20260905184055 35 234 4.8 8.0 0.00 0.00 0.00 54 1013.0
20260905183555 35 246 3.2 6.4 0.00 0.00 0.00 55 1012.9
20260905183109 35 239 3.2 4.8 0.00 0.00 0.00 58 1013.1
20260905182556 34 242 3.2 8.0 0.00 0.00 0.00 55 1013.2
20260905182055 34 231 3.2 8.0 0.00 0.00 0.00 57 1013.4
20260905181607 34 254 3.2 4.8 0.00 0.00 0.00 57 1013.5
20260905181058 33 231 3.2 4.8 0.00 0.00 0.00 59 1013.5
20260905180558 33 243 1.6 3.2 0.00 0.00 0.00 59 1013.5
20260905180104 33 193 0.0 3.2 0.00 0.00 0.00 58 1013.6
20260905175558 33 207 1.6 8.0 0.00 0.00 0.00 58 1013.7
20260905175059 33 221 3.2 8.0 0.00 0.00 0.00 60 1013.7
20260905174608 33 236 3.2 6.4 0.00 0.00 0.00 60 1013.7
20260905174058 33 226 1.6 3.2 0.00 0.00 0.00 59 1013.8
20260905173557 33 239 0.0 4.8 0.00 0.00 0.00 57 1013.9
20260905173113 33 0 0.0 4.8 0.00 0.00 0.00 57 1014.0
20260905172558 34 245 3.2 4.8 0.00 0.00 0.00 57 1014.1
20260905172100 34 246 1.6 3.2 0.00 0.00 0.00 57 1014.1
20260905171624 34 333 1.6 6.4 0.00 0.00 0.00 56 1014.3
20260905171058 34 300 1.6 6.4 0.00 0.00 0.00 56 1014.2
20260905170558 35 352 0.0 4.8 0.00 0.00 0.00 56 1014.3
20260905170113 34 281 0.0 4.8 0.00 0.00 0.00 59 1014.3
20260905165558 34 250 0.0 6.4 0.00 0.00 0.00 60 1014.3
20260905165058 34 229 1.6 6.4 0.00 0.00 0.00 58 1014.3
20260905164605 34 213 1.6 6.4 0.00 0.00 0.00 56 1014.5
20260905164058 34 167 0.0 6.4 0.00 0.00 0.00 58 1014.5
20260905163558 34 347 1.6 6.4 0.00 0.00 0.00 58 1014.7
20260905163114 34 294 0.0 8.0 0.00 0.00 0.00 59 1014.9
20260905162600 34 253 1.6 8.0 0.00 0.00 0.00 58 1014.9
20260905162058 34 0 3.2 8.0 0.00 0.00 0.00 58 1014.9
20260905161618 33 53 1.6 8.0 0.00 0.00 0.00 59 1015.0
20260905161057 33 74 0.0 8.0 0.00 0.00 0.00 61 1015.0
20260905160555 33 240 1.6 8.0 0.00 0.00 0.00 60 1015.1
20260905160107 33 250 1.6 4.8 0.00 0.00 0.00 61 1015.1
20260905155602 33 11 1.6 6.4 0.00 0.00 0.00 61 1015.1
20260905155058 32 39 1.6 6.4 0.00 0.00 0.00 62 1015.2
20260905154618 32 325 0.0 4.8 0.00 0.00 0.00 63 1015.3
20260905154058 32 243 1.6 4.8 0.00 0.00 0.00 63 1015.3
20260905153558 32 252 0.0 4.8 0.00 0.00 0.00 63 1015.4
20260905153114 32 272 0.0 4.8 0.00 0.00 0.00 64 1015.4
20260905152558 32 248 0.0 3.2 0.00 0.00 0.00 63 1015.4
20260905152059 32 238 0.0 4.8 0.00 0.00 0.00 63 1015.4
20260905151616 31 260 1.6 4.8 0.00 0.00 0.00 64 1015.5
20260905151055 31 253 3.2 4.8 0.00 0.00 0.00 64 1015.6
20260905150555 31 231 0.0 4.8 0.00 0.00 0.00 65 1015.5
20260905150107 31 261 1.6 4.8 0.00 0.00 0.00 65 1015.6
20260905145601 31 278 0.0 4.8 0.00 0.00 0.00 66 1015.6
20260905145056 30 339 1.6 4.8 0.00 0.00 0.00 67 1015.6
20260905144603 30 252 0.0 4.8 0.00 0.00 0.00 68 1015.6
20260905144100 30 251 1.6 4.8 0.00 0.00 0.00 70 1015.7
20260905143558 29 252 3.2 4.8 0.00 0.00 0.00 70 1015.8
20260905143104 29 244 1.6 4.8 0.00 0.00 0.00 71 1015.8
20260905142601 29 251 1.6 4.8 0.00 0.00 0.00 72 1015.8
20260905142100 28 239 1.6 4.8 0.00 0.00 0.00 72 1015.8
20260905141604 28 242 3.2 4.8 0.00 0.00 0.00 73 1015.9
20260905141055 28 246 1.6 3.2 0.00 0.00 0.00 74 1015.9
20260905140559 28 240 1.6 3.2 0.00 0.00 0.00 74 1015.9
20260905135558 27 0 1.6 3.2 0.00 0.00 0.00 76 1015.9
20260905135059 27 246 0.0 3.2 0.00 0.00 0.00 77 1015.9
20260905134603 27 240 1.6 3.2 0.00 0.00 0.00 77 1015.8
20260905134101 27 240 0.0 1.6 0.00 0.00 0.00 79 1015.9
20260905133557 26 0 0.0 1.6 0.00 0.00 0.00 80 1015.9
20260905133101 26 240 0.0 3.2 0.00 0.00 0.00 80 1015.9
20260905132558 26 240 1.6 3.2 0.00 0.00 0.00 81 1016.0
20260905132056 26 243 1.6 3.2 0.00 0.00 0.00 82 1016.0
20260905131607 25 242 0.0 3.2 0.00 0.00 0.00 83 1016.1
20260905131102 25 241 1.6 3.2 0.00 0.00 0.00 84 1016.2
20260905130558 25 237 1.6 3.2 0.00 0.00 0.00 85 1016.1
20260905125558 24 0 0.0 1.6 0.00 0.00 0.00 87 1016.0
20260905125058 24 4 0.0 0.0 0.00 0.00 0.00 89 1016.0
20260905124605 24 4 0.0 0.0 0.00 0.00 0.00 89 1016.0
20260905124055 23 0 0.0 0.0 0.00 0.00 0.00 90 1016.0
20260905123558 23 0 0.0 0.0 0.00 0.00 0.00 90 1016.2
20260905123104 23 0 0.0 0.0 0.00 0.00 0.00 91 1016.0
20260905122555 23 0 0.0 1.6 0.00 0.00 0.00 91 1016.0
20260905122102 23 0 0.0 1.6 0.00 0.00 0.00 91 1015.9
20260905121604 23 0 0.0 1.6 0.00 0.00 0.00 91 1015.8
20260905121055 23 0 0.0 0.0 0.00 0.00 0.00 91 1015.9
20260905120600 23 0 0.0 0.0 0.00 0.00 0.00 91 1015.8
20260905120105 23 0 0.0 0.0 0.00 0.00 0.00 91 1015.7
20260905115556 23 0 0.0 0.0 0.00 0.00 0.00 91 1015.7
20260905115058 23 0 0.0 0.0 0.00 0.00 0.00 91 1015.7
20260905114605 23 0 0.0 0.0 0.00 0.00 0.00 91 1015.5
20260905114100 23 0 0.0 0.0 0.00 0.00 0.00 90 1015.5
20260905113556 23 0 0.0 0.0 0.00 0.00 0.00 91 1015.5
20260905113101 23 0 0.0 0.0 0.00 0.00 0.00 90 1015.5
20260905112558 23 0 0.0 0.0 0.00 0.00 0.00 90 1015.4
20260905112059 23 0 0.0 0.0 0.00 0.00 0.00 90 1015.4
20260905111646 23 0 0.0 0.0 0.00 0.00 0.00 90 1015.3
20260905111057 23 0 0.0 0.0 0.00 0.00 0.00 90 1015.2
20260905110557 23 0 0.0 0.0 0.00 0.00 0.00 90 1015.3